When you browse on this site, cookies collect data to enhance your experience and personalize the content and advertising you see.
Visit our Privacy Policy to learn more. By continuing to use the site, you agree to this use of cookies and data.

Hourly Weather Saint-Maximin-la-Sainte-Baume

Today, 12 July, Sunday

Time Temperature Precipitation Wind Pressure Humidity
00:00 +20°C° 0 mm 1 mps 735 mmHg 74%
01:00 +20°C° 0 mm 1 mps 735 mmHg 76%
02:00 +20°C° 0 mm 1 mps 735 mmHg 78%
03:00 +19°C° 0 mm 1 mps 735 mmHg 80%
04:00 +21°C° 0 mm 1 mps 735 mmHg 76%
05:00 +22°C° 0 mm 1 mps 736 mmHg 72%
06:00 +23°C° 0 mm 1 mps 736 mmHg 69%
07:00 +24°C° 0 mm 1 mps 737 mmHg 66%
08:00 +26°C° 0 mm 2 mps 737 mmHg 63%
09:00 +28°C° 0 mm 2 mps 737 mmHg 60%
10:00 +28°C° 0.1 mm 3 mps 738 mmHg 56%
11:00 +29°C° 0.1 mm 3 mps 738 mmHg 52%
12:00 +30°C° 0.1 mm 3 mps 738 mmHg 48%
13:00 +30°C° 0 mm 3 mps 738 mmHg 49%
14:00 +30°C° 0 mm 3 mps 737 mmHg 50%
15:00 +29°C° 0 mm 3 mps 737 mmHg 51%
16:00 +29°C° 0 mm 3 mps 737 mmHg 53%
17:00 +28°C° 0 mm 2 mps 737 mmHg 56%
18:00 +27°C° 0 mm 2 mps 737 mmHg 59%
19:00 +26°C° 0 mm 1 mps 737 mmHg 64%
20:00 +24°C° 0 mm 1 mps 737 mmHg 70%
21:00 +21°C° 0 mm 0 mps 738 mmHg 75%
22:00 +20°C° 0 mm 0 mps 738 mmHg 77%
23:00 +20°C° 0 mm 0 mps 738 mmHg 79%

Tomorrow, 13 July, Monday

Time Temperature Precipitation Wind Pressure Humidity
00:00 +19°C° 0 mm 0 mps 737 mmHg 81%
01:00 +21°C° 0 mm 1 mps 737 mmHg 82%
02:00 +21°C° 0 mm 1 mps 737 mmHg 83%
03:00 +21°C° 0 mm 1 mps 737 mmHg 83%
04:00 +22°C° 0 mm 1 mps 737 mmHg 79%
05:00 +23°C° 0 mm 1 mps 737 mmHg 75%
06:00 +22°C° 0 mm 0 mps 737 mmHg 70%
07:00 +25°C° 0 mm 1 mps 737 mmHg 61%
08:00 +27°C° 0 mm 1 mps 737 mmHg 51%
09:00 +29°C° 0 mm 2 mps 737 mmHg 41%
10:00 +30°C° 0 mm 3 mps 737 mmHg 39%
11:00 +31°C° 0 mm 3 mps 737 mmHg 37%
12:00 +33°C° 0 mm 4 mps 737 mmHg 34%
13:00 +32°C° 0 mm 4 mps 737 mmHg 37%
14:00 +30°C° 0 mm 5 mps 736 mmHg 39%
15:00 +30°C° 0 mm 5 mps 736 mmHg 41%
16:00 +29°C° 0 mm 4 mps 735 mmHg 44%
17:00 +28°C° 0 mm 3 mps 735 mmHg 47%
18:00 +27°C° 0 mm 3 mps 735 mmHg 50%
19:00 +25°C° 0 mm 2 mps 735 mmHg 56%
20:00 +23°C° 0 mm 2 mps 735 mmHg 62%
21:00 +22°C° 0 mm 1 mps 735 mmHg 68%
22:00 +21°C° 0 mm 1 mps 735 mmHg 70%
23:00 +21°C° 0 mm 1 mps 735 mmHg 71%

Day after tomorrow, 14 July, Tuesday

Time Temperature Precipitation Wind Pressure Humidity
00:00 +20°C° 0 mm 1 mps 734 mmHg 72%
01:00 +20°C° 0 mm 1 mps 734 mmHg 72%
02:00 +20°C° 0 mm 1 mps 734 mmHg 72%
03:00 +20°C° 0 mm 1 mps 734 mmHg 72%
04:00 +21°C° 0 mm 1 mps 734 mmHg 68%
05:00 +22°C° 0 mm 1 mps 734 mmHg 64%
06:00 +21°C° 0 mm 0 mps 734 mmHg 60%
07:00 +25°C° 0 mm 1 mps 734 mmHg 53%
08:00 +27°C° 0 mm 1 mps 734 mmHg 46%
09:00 +29°C° 0 mm 1 mps 735 mmHg 40%
10:00 +30°C° 0 mm 2 mps 735 mmHg 37%
11:00 +30°C° 0 mm 3 mps 735 mmHg 34%
12:00 +32°C° 0 mm 4 mps 734 mmHg 31%
13:00 +32°C° 0 mm 4 mps 734 mmHg 31%
14:00 +32°C° 0 mm 4 mps 734 mmHg 30%
15:00 +32°C° 0 mm 4 mps 733 mmHg 30%
16:00 +30°C° 0 mm 4 mps 733 mmHg 33%
17:00 +29°C° 0 mm 4 mps 733 mmHg 35%
18:00 +28°C° 0 mm 3 mps 733 mmHg 38%
19:00 +26°C° 0 mm 3 mps 733 mmHg 43%
20:00 +24°C° 0 mm 2 mps 733 mmHg 49%
21:00 +23°C° 0 mm 1 mps 733 mmHg 54%
22:00 +22°C° 0 mm 1 mps 733 mmHg 56%
23:00 +21°C° 0 mm 1 mps 733 mmHg 58%

15 July, Wednesday

Time Temperature Precipitation Wind Pressure Humidity
00:00 +21°C° 0 mm 1 mps 733 mmHg 60%
01:00 +20°C° 0 mm 1 mps 733 mmHg 62%
02:00 +19°C° 0 mm 1 mps 733 mmHg 64%
03:00 +19°C° 0 mm 1 mps 732 mmHg 66%
04:00 +20°C° 0 mm 1 mps 733 mmHg 63%
05:00 +20°C° 0 mm 2 mps 733 mmHg 60%
06:00 +20°C° 0 mm 2 mps 733 mmHg 57%
07:00 +24°C° 0 mm 2 mps 734 mmHg 50%
08:00 +26°C° 0 mm 3 mps 734 mmHg 42%
09:00 +28°C° 0 mm 3 mps 734 mmHg 35%
10:00 +29°C° 0 mm 4 mps 734 mmHg 33%
11:00 +30°C° 0 mm 5 mps 734 mmHg 30%
12:00 +32°C° 0 mm 6 mps 734 mmHg 28%
13:00 +32°C° 0 mm 6 mps 734 mmHg 29%
14:00 +32°C° 0 mm 7 mps 734 mmHg 29%
15:00 +30°C° 0 mm 7 mps 734 mmHg 30%
16:00 +29°C° 0 mm 7 mps 733 mmHg 32%
17:00 +28°C° 0 mm 7 mps 733 mmHg 35%
18:00 +27°C° 0 mm 7 mps 733 mmHg 37%
19:00 +24°C° 0 mm 6 mps 733 mmHg 42%
20:00 +23°C° 0 mm 6 mps 734 mmHg 47%
21:00 +21°C° 0 mm 5 mps 734 mmHg 52%
22:00 +20°C° 0 mm 5 mps 734 mmHg 55%
23:00 +19°C° 0 mm 4 mps 734 mmHg 59%

16 July, Thursday

Time Temperature Precipitation Wind Pressure Humidity
00:00 +18°C° 0 mm 4 mps 734 mmHg 62%
01:00 +18°C° 0 mm 3 mps 733 mmHg 65%
02:00 +17°C° 0 mm 3 mps 733 mmHg 68%
03:00 +16°C° 0 mm 2 mps 733 mmHg 72%
04:00 +17°C° 0 mm 2 mps 733 mmHg 68%
05:00 +18°C° 0 mm 2 mps 733 mmHg 65%
06:00 +19°C° 0 mm 2 mps 734 mmHg 61%
07:00 +21°C° 0 mm 3 mps 734 mmHg 54%
08:00 +24°C° 0 mm 3 mps 734 mmHg 47%
09:00 +27°C° 0 mm 3 mps 734 mmHg 40%
10:00 +28°C° 0 mm 3 mps 734 mmHg 37%
11:00 +30°C° 0 mm 3 mps 734 mmHg 33%
12:00 +33°C° 0 mm 3 mps 734 mmHg 30%
13:00 +33°C° 0 mm 4 mps 734 mmHg 30%
14:00 +32°C° 0 mm 5 mps 734 mmHg 30%
15:00 +32°C° 0 mm 5 mps 733 mmHg 31%
16:00 +30°C° 0 mm 5 mps 733 mmHg 34%
17:00 +29°C° 0 mm 5 mps 733 mmHg 37%
18:00 +28°C° 0 mm 5 mps 733 mmHg 41%
19:00 +26°C° 0 mm 5 mps 733 mmHg 46%
20:00 +23°C° 0 mm 4 mps 733 mmHg 52%
21:00 +21°C° 0 mm 3 mps 733 mmHg 58%
22:00 +20°C° 0 mm 3 mps 733 mmHg 61%
23:00 +19°C° 0 mm 3 mps 733 mmHg 64%

17 July, Friday

Time Temperature Precipitation Wind Pressure Humidity
00:00 +19°C° 0 mm 3 mps 733 mmHg 68%
01:00 +18°C° 0 mm 3 mps 732 mmHg 69%
02:00 +18°C° 0 mm 3 mps 732 mmHg 71%
03:00 +17°C° 0 mm 3 mps 732 mmHg 73%
04:00 +18°C° 0 mm 2 mps 732 mmHg 70%
05:00 +19°C° 0 mm 2 mps 732 mmHg 66%
06:00 +20°C° 0 mm 2 mps 733 mmHg 63%
07:00 +23°C° 0 mm 2 mps 733 mmHg 55%
08:00 +26°C° 0 mm 2 mps 733 mmHg 47%
09:00 +29°C° 0 mm 2 mps 734 mmHg 39%
10:00 +29°C° 0 mm 2 mps 734 mmHg 37%
11:00 +30°C° 0 mm 3 mps 734 mmHg 35%
12:00 +31°C° 0 mm 3 mps 734 mmHg 33%
13:00 +31°C° 0 mm 3 mps 734 mmHg 33%
14:00 +32°C° 0 mm 4 mps 733 mmHg 33%
15:00 +32°C° 0 mm 4 mps 733 mmHg 33%
16:00 +30°C° 0 mm 4 mps 733 mmHg 35%
17:00 +29°C° 0 mm 4 mps 733 mmHg 36%
18:00 +29°C° 0 mm 4 mps 733 mmHg 38%
19:00 +26°C° 0 mm 3 mps 733 mmHg 46%
20:00 +24°C° 0 mm 2 mps 733 mmHg 55%
21:00 +21°C° 0 mm 2 mps 734 mmHg 63%
22:00 +20°C° 0 mm 2 mps 734 mmHg 66%
23:00 +21°C° 0 mm 1 mps 734 mmHg 68%
Show more